[[{"header":{"parameterUnit":"m.s-1","parameterCategory":1,"la1":30.2991,"la2":30.254,"lo1":-89.0895,"lo2":-89.0444,"dy":0.0017,"dx":0.0017,"nx":28,"ny":28,"refTime":"2025-08-24T09:00:00:Z","depth":0,"parameterNumber":2,"parameterNumberName":"U-component_of_WINDS"},"data":[0,0,0,0,0,0,0,0,0,0,0,0,0,0,0,0,0,0,0,0,0,0,0,0,0,0,0,0,0,0,0,0,0,0,0,0,0,0,0,0,0,0,0,0,0,0,0,0,0,0,0,0,0,0,0,0,0,0,-3.3908,-3.3908,0,-3.3883,-3.3883,-3.3883,-3.3823,-3.3822,-3.382,-3.3819,-3.3794,-3.3795,-3.3795,0,0,0,0,0,0,0,0,0,0,0,0,0,-3.3907,-3.3907,-3.3908,-3.3908,-3.3908,-3.3883,-3.3883,-3.3882,-3.3823,-3.3822,-3.382,-3.3819,-3.3794,-3.3795,-3.3795,0,0,0,0,0,0,0,0,0,0,0,0,0,-3.3897,-3.3907,-3.3908,-3.3875,-3.3872,-3.3883,-3.3883,-3.3882,-3.3823,-3.3822,-3.382,-3.3818,-3.3794,-3.3795,-3.3795,-3.3837,0,0,-3.3798,-3.3798,0,0,0,0,0,0,0,0,-3.3898,-3.3897,-3.388,-3.3878,-3.3874,-3.3854,-3.3873,-3.3867,-3.3824,-3.3842,-3.3819,-3.3817,-3.3816,-3.3815,-3.3814,-3.3836,-3.3835,-3.3798,-3.3798,-3.3798,-3.3799,0,0,0,0,0,0,0,-3.3899,-3.3898,-3.3898,-3.388,-3.3876,-3.3862,-3.3859,-3.3872,-3.384,-3.384,-3.3836,-3.3834,-3.3814,-3.3813,-3.3813,-3.3835,-3.3798,-3.3798,-3.3799,-3.3799,-3.3891,-3.3893,0,0,0,0,0,0,-3.3904,-3.3899,-3.3899,-3.3898,-3.3882,-3.3864,-3.386,-3.3862,-3.3839,-3.3834,-3.3835,-3.3831,-3.3813,-3.3812,-3.3812,-3.386,-3.3798,-3.3799,-3.38,-3.3889,-3.3891,-3.3894,0,0,0,0,0,0,-3.3904,-3.3904,-3.39,-3.3897,-3.3895,-3.3866,-3.3869,-3.3863,-3.3863,-3.3836,-3.383,-3.3841,-3.3812,-3.3811,-3.3832,-3.3859,-3.38,-3.38,-3.3887,-3.389,-3.3893,-3.3957,0,0,0,0,0,0,-3.3904,-3.3905,-3.392,-3.3898,-3.3896,-3.392,-3.3871,-3.3864,-3.3864,-3.3858,-3.3839,-3.3834,-3.381,-3.3831,-3.3832,-3.3859,-3.3801,-3.3884,-3.3888,-3.3892,-3.3953,-3.3962,-3.397,0,0,0,0,0,-3.3904,-3.3939,-3.3921,-3.3922,-3.3914,-3.3922,-3.3921,-3.3892,-3.3866,-3.3882,-3.3865,-3.3835,-3.3855,-3.3833,-3.3835,-3.3862,-3.3882,-3.3887,-3.3891,-3.3949,-3.396,-3.397,0,0,0,0,0,0,-3.3966,-3.3936,-3.3915,-3.3944,-3.3936,-3.3912,-3.393,-3.3905,-3.3904,-3.3899,-3.3863,-3.3859,-3.3885,-3.3875,-3.3851,-3.3901,-3.3864,-3.3869,-3.3907,-3.3918,-3.3927,-3.3929,-3.3801,0,0,0,0,0,-3.3982,-3.3991,-3.3964,-3.3992,-3.3989,-3.3961,-3.3963,-3.3941,-3.3932,-3.3928,-3.3912,-3.3904,-3.3909,-3.3913,-3.3915,-3.395,-3.3946,-3.397,-3.3979,-3.3986,-3.3991,-3.401,-3.4021,-3.3908,-3.3908,-3.3908,0,0,-3.4017,-3.4002,-3.4009,-3.4004,-3.3995,-3.4005,-3.3958,-3.397,-3.3978,-3.393,-3.3949,-3.3937,-3.3926,-3.3954,-3.3966,-3.3947,-3.4021,-3.3992,-3.3998,-3.3999,-3.4016,-3.4027,-3.4036,-3.3911,-3.3911,-3.391,0,0,-3.4086,-3.4075,-3.4097,-3.409,-3.4077,-3.4058,-3.4063,-3.4043,-3.4034,-3.4052,-3.4017,-3.4025,-3.4033,-3.4027,-3.4025,-3.4093,-3.4066,-3.4095,-3.4141,-3.416,-3.4169,-3.4177,-3.4203,-3.4212,-3.4099,-3.41,-3.41,0,-3.4131,-3.4145,-3.4112,-3.4127,-3.4127,-3.4083,-3.4107,-3.4101,-3.409,-3.409,-3.4069,-3.4079,-3.4068,-3.4096,-3.4112,-3.4112,-3.4118,-3.4097,-3.4171,-3.4178,-3.4185,-3.4209,-3.4218,-3.4103,-3.4103,-3.4102,-3.4102,0,-3.4201,-3.4211,-3.4231,-3.4222,-3.4223,-3.4242,-3.4213,-3.4219,-3.4197,-3.4181,-3.4201,-3.4186,-3.4186,-3.419,-3.4169,-3.4215,-3.4204,-3.4177,-3.4139,-3.42,-3.4222,-3.423,-3.4109,-3.4107,-3.4106,-3.4105,0,0,-3.4309,-3.4282,-3.429,-3.4285,-3.4268,-3.4276,-3.4293,-3.4292,-3.4298,-3.4292,-3.4307,-3.4315,-3.429,-3.4288,-3.4266,-3.4283,-3.4339,-3.4254,-3.4253,-3.4272,-3.439,-3.4412,-3.4423,-3.4321,-3.4322,-3.4324,-3.4392,0,-3.4375,-3.4403,-3.4375,-3.4409,-3.4418,-3.4377,-3.4393,-3.4384,-3.437,-3.4376,-3.4359,-3.4366,-3.4332,-3.4331,-3.4346,-3.4329,-3.4363,-3.4324,-3.4335,-3.4336,-3.4341,-3.4434,-3.4457,-3.4522,-3.44,-3.4401,-3.4402,0,-3.4456,-3.4454,-3.4489,-3.447,-3.4473,-3.4488,-3.4485,-3.4491,-3.4481,-3.4469,-3.4468,-3.4441,-3.4457,-3.442,-3.4443,-3.4417,-3.442,-3.4413,-3.4414,-3.4415,-3.4374,-3.4439,-3.4541,-3.4552,-3.4415,-3.4414,-3.4413,0,-3.4532,-3.4538,-3.456,-3.4558,-3.4536,-3.4548,-3.4539,-3.4527,-3.4529,-3.4527,-3.4529,-3.4529,-3.4529,-3.453,-3.4505,-3.4479,-3.4532,-3.4491,-3.4523,-3.4524,-3.4537,-3.4537,-3.4643,-3.4537,-3.4537,-3.4537,-3.4536,0,-3.461,-3.4633,-3.4595,-3.4608,-3.4634,-3.4601,-3.4627,-3.4615,-3.4605,-3.4616,-3.458,-3.4592,-3.4557,-3.4565,-3.4545,-3.4568,-3.4568,-3.4559,-3.4554,-3.4563,-3.4565,-3.4566,-3.4561,-3.4539,-3.4539,-3.4538,-3.4538,0,-3.4701,-3.4675,-3.4697,-3.4675,-3.467,-3.469,-3.4672,-3.4684,-3.4666,-3.4681,-3.4683,-3.4656,-3.4664,-3.4638,-3.4641,-3.4628,-3.4662,-3.4648,-3.4666,-3.4662,-3.4696,-3.4694,-3.4808,-3.4822,-3.4706,-3.4707,-3.4708,0,-3.4752,-3.477,-3.475,-3.4755,-3.4748,-3.4756,-3.4758,-3.4727,-3.473,-3.4721,-3.4734,-3.4739,-3.4741,-3.4755,-3.4736,-3.4739,-3.4726,-3.4766,-3.4726,-3.4736,-3.4729,-3.4729,-3.4731,-3.4775,-3.4776,-3.4777,-3.4778,0,-3.4848,-3.4835,-3.4838,-3.4838,-3.4841,-3.484,-3.4836,-3.4842,-3.4808,-3.4814,-3.4821,-3.4823,-3.4826,-3.4832,-3.483,-3.4822,-3.4796,-3.4791,-3.4798,-3.4809,-3.4819,-3.4816,-3.469,-3.4788,-3.4787,-3.4787,-3.4786,-3.4786,-3.4922,-3.4935,-3.4924,-3.493,-3.4923,-3.492,-3.4931,-3.4915,-3.4921,-3.4921,-3.4902,-3.4914,-3.4904,-3.4899,-3.4894,-3.4903,-3.4885,-3.4896,-3.4899,-3.4903,-3.4909,-3.4816,-3.4903,-3.4902,-3.4902,-3.4902,-3.4901,0,-3.5017,-3.5007,-3.5012,-3.5008,-3.5013,-3.4986,-3.498,-3.4986,-3.4997,-3.499,-3.4993,-3.5002,-3.5007,-3.4989,-3.4991,-3.5002,-3.499,-3.5004,-3.5004,-3.5003,-3.4924,-3.4918,-3.5014,-3.5014,-3.5014,-3.5014,-3.5014,-3.5014,-3.5067,-3.5089,-3.5075,-3.5094,-3.5084,-3.5095,-3.5094,-3.5092,-3.5086,-3.5098,-3.5102,-3.509,-3.5079,-3.508,-3.5084,-3.5079,-3.5082,-3.5101,-3.5092,-3.5019,-3.5008,-3.4998,-3.4992,-3.5102,-3.5102,-3.517,-3.517,-3.5171]},{"header":{"parameterUnit":"m.s-1","parameterCategory":1,"la1":30.2991,"la2":30.254,"lo1":-89.0895,"lo2":-89.0444,"dy":0.0017,"dx":0.0017,"nx":28,"ny":28,"refTime":"2025-08-24T09:00:00:Z","depth":0,"parameterNumber":3,"parameterNumberName":"V-component_of_WINDS"},"data":[0,0,0,0,0,0,0,0,0,0,0,0,0,0,0,0,0,0,0,0,0,0,0,0,0,0,0,0,0,0,0,0,0,0,0,0,0,0,0,0,0,0,0,0,0,0,0,0,0,0,0,0,0,0,0,0,0,0,-2.2871,-2.2871,0,-2.2904,-2.2904,-2.2904,-2.2878,-2.2877,-2.2876,-2.2875,-2.2907,-2.2909,-2.2911,0,0,0,0,0,0,0,0,0,0,0,0,0,-2.2784,-2.2786,-2.2871,-2.2871,-2.2872,-2.2904,-2.2904,-2.2905,-2.2879,-2.2877,-2.2876,-2.2875,-2.2907,-2.2909,-2.2911,0,0,0,0,0,0,0,0,0,0,0,0,0,-2.282,-2.2787,-2.2871,-2.2863,-2.2862,-2.2904,-2.2904,-2.2905,-2.2879,-2.2877,-2.2876,-2.2874,-2.2906,-2.2909,-2.2912,-2.2962,0,0,-2.292,-2.2921,0,0,0,0,0,0,0,0,-2.2818,-2.2823,-2.2863,-2.2863,-2.2863,-2.2885,-2.2885,-2.2924,-2.2879,-2.2873,-2.2875,-2.2873,-2.2901,-2.2904,-2.2914,-2.2964,-2.2965,-2.2921,-2.2922,-2.2923,-2.2924,0,0,0,0,0,0,0,-2.2816,-2.2822,-2.2884,-2.2864,-2.2864,-2.2857,-2.286,-2.2893,-2.2896,-2.2873,-2.2871,-2.2876,-2.2901,-2.2912,-2.2915,-2.2966,-2.292,-2.2923,-2.2925,-2.2926,-2.3059,-2.306,0,0,0,0,0,0,-2.2814,-2.282,-2.2883,-2.2885,-2.2836,-2.286,-2.2863,-2.288,-2.2895,-2.2896,-2.2877,-2.2874,-2.2907,-2.2911,-2.2916,-2.2977,-2.2923,-2.2926,-2.2928,-2.3057,-2.3059,-2.3061,0,0,0,0,0,0,-2.2812,-2.282,-2.2881,-2.2852,-2.2859,-2.2863,-2.2882,-2.2881,-2.2892,-2.2898,-2.2899,-2.2887,-2.2906,-2.2912,-2.2951,-2.2977,-2.2927,-2.293,-2.3055,-2.3057,-2.306,-2.3098,0,0,0,0,0,0,-2.281,-2.2819,-2.2839,-2.2852,-2.2861,-2.2917,-2.2883,-2.2883,-2.2897,-2.2894,-2.2908,-2.2909,-2.2905,-2.2947,-2.2954,-2.298,-2.2932,-2.3052,-2.3056,-2.3059,-2.3095,-2.3102,-2.3108,0,0,0,0,0,-2.2807,-2.2848,-2.284,-2.2848,-2.2886,-2.2918,-2.2923,-2.2919,-2.2899,-2.2919,-2.2923,-2.2909,-2.2973,-2.2951,-2.2959,-2.2986,-2.3051,-2.3055,-2.3059,-2.3092,-2.3101,-2.3108,0,0,0,0,0,0,-2.2837,-2.285,-2.2841,-2.2888,-2.2902,-2.2914,-2.2939,-2.2928,-2.2948,-2.2944,-2.2937,-2.294,-2.2982,-2.2988,-2.2963,-2.3036,-2.3009,-2.3015,-2.3031,-2.304,-2.3046,-2.3044,-2.2934,0,0,0,0,0,-2.285,-2.2876,-2.2885,-2.2925,-2.2933,-2.2935,-2.2949,-2.2944,-2.2958,-2.2964,-2.2971,-2.2985,-2.3009,-2.3024,-2.3046,-2.3095,-2.3098,-2.3118,-2.3125,-2.313,-2.3136,-2.3162,-2.3171,-2.3075,-2.3074,-2.3074,0,0,-2.2875,-2.2885,-2.2902,-2.2932,-2.2942,-2.2969,-2.294,-2.2969,-2.2989,-2.2968,-2.3006,-2.3012,-2.3027,-2.3072,-2.3092,-2.3078,-2.3163,-2.3135,-2.314,-2.3142,-2.3167,-2.3177,-2.3185,-2.3077,-2.3077,-2.3076,0,0,-2.2935,-2.2945,-2.298,-2.2992,-2.3008,-2.3009,-2.3018,-2.3031,-2.3034,-2.3072,-2.3057,-2.308,-2.312,-2.3132,-2.3143,-2.3208,-2.3196,-2.3215,-2.3251,-2.3277,-2.3285,-2.3291,-2.3315,-2.3323,-2.322,-2.322,-2.3221,0,-2.2965,-2.3005,-2.3,-2.3031,-2.3044,-2.3027,-2.3063,-2.3074,-2.3096,-2.3106,-2.309,-2.3141,-2.315,-2.3197,-2.3213,-2.3222,-2.3232,-2.3214,-2.3284,-2.3291,-2.3297,-2.3319,-2.3328,-2.3223,-2.3223,-2.3222,-2.3222,0,-2.3041,-2.3069,-2.3095,-2.3118,-2.3135,-2.3168,-2.3167,-2.3184,-2.3178,-2.318,-2.3219,-2.3229,-2.3253,-2.3264,-2.3258,-2.331,-2.3301,-2.3285,-2.3257,-2.3309,-2.333,-2.3338,-2.3226,-2.3225,-2.3225,-2.3224,0,0,-2.3121,-2.3141,-2.3151,-2.3162,-2.3179,-2.32,-2.3232,-2.3256,-2.3271,-2.3287,-2.3314,-2.3349,-2.3334,-2.3346,-2.3341,-2.3364,-2.3416,-2.3345,-2.3345,-2.3358,-2.3475,-2.3487,-2.3497,-2.3407,-2.3409,-2.341,-2.3473,0,-2.3183,-2.324,-2.3236,-2.3289,-2.3315,-2.3299,-2.3327,-2.334,-2.3343,-2.3365,-2.3368,-2.3393,-2.3371,-2.3379,-2.3401,-2.3405,-2.3439,-2.34,-2.3432,-2.3433,-2.343,-2.3508,-2.3522,-2.3581,-2.3482,-2.3483,-2.3484,0,-2.3262,-2.3282,-2.3338,-2.3352,-2.3362,-2.3388,-2.341,-2.3431,-2.3445,-2.3446,-2.346,-2.3452,-2.3484,-2.3455,-2.3499,-2.3472,-2.3485,-2.3489,-2.3491,-2.3494,-2.3462,-2.3514,-2.36,-2.3609,-2.3497,-2.3496,-2.3495,0,-2.3316,-2.3357,-2.3396,-2.3405,-2.3422,-2.344,-2.3447,-2.346,-2.3475,-2.3494,-2.3503,-2.3525,-2.3537,-2.3554,-2.3552,-2.3531,-2.3597,-2.3567,-2.3598,-2.3598,-2.3613,-2.3612,-2.3703,-2.362,-2.362,-2.362,-2.362,0,-2.3386,-2.3421,-2.342,-2.3444,-2.3483,-2.3478,-2.3516,-2.3522,-2.3533,-2.3558,-2.3545,-2.3568,-2.3563,-2.3586,-2.3583,-2.362,-2.3626,-2.3627,-2.3626,-2.3629,-2.3629,-2.3637,-2.3634,-2.3622,-2.3622,-2.3621,-2.3621,0,-2.3453,-2.3454,-2.3496,-2.3508,-2.3512,-2.354,-2.355,-2.3573,-2.3575,-2.3606,-2.3613,-2.3616,-2.3642,-2.3641,-2.367,-2.3669,-2.3715,-2.3709,-2.371,-2.3709,-2.374,-2.3738,-2.384,-2.3853,-2.3761,-2.3762,-2.3763,0,-2.3498,-2.3525,-2.354,-2.3556,-2.3565,-2.3591,-2.3606,-2.3601,-2.3618,-2.3637,-2.3657,-2.3682,-2.3702,-2.3745,-2.3749,-2.3772,-2.3766,-2.3801,-2.377,-2.3772,-2.3768,-2.3766,-2.3769,-2.3807,-2.3808,-2.3809,-2.381,0,-2.3577,-2.3577,-2.3599,-2.3623,-2.3641,-2.3659,-2.3675,-2.3689,-2.3686,-2.3705,-2.3732,-2.3748,-2.3778,-2.3803,-2.3825,-2.3832,-2.3821,-2.3819,-2.3828,-2.3831,-2.3831,-2.3832,-2.3728,-2.3817,-2.3816,-2.3816,-2.3815,-2.3815,-2.3635,-2.3658,-2.3673,-2.3699,-2.3711,-2.3727,-2.3749,-2.3753,-2.3776,-2.3801,-2.3797,-2.3827,-2.3841,-2.3869,-2.3878,-2.3902,-2.389,-2.3902,-2.3905,-2.3908,-2.3912,-2.3827,-2.3906,-2.3905,-2.3905,-2.3905,-2.3905,0,-2.3715,-2.3723,-2.3747,-2.3771,-2.3791,-2.3779,-2.3796,-2.3814,-2.3841,-2.3855,-2.3875,-2.3906,-2.3931,-2.3937,-2.3961,-2.3978,-2.3974,-2.3985,-2.3984,-2.3986,-2.3921,-2.3912,-2.3988,-2.3988,-2.3988,-2.3988,-2.3988,-2.3988,-2.3758,-2.3797,-2.3798,-2.3843,-2.3851,-2.3882,-2.3893,-2.3907,-2.3918,-2.3954,-2.3974,-2.3978,-2.3989,-2.4014,-2.4035,-2.4036,-2.4046,-2.4059,-2.4059,-2.3998,-2.399,-2.3982,-2.3973,-2.4061,-2.4061,-2.4121,-2.4122,-2.4122]}]]